Location: Presov
(49.0000°N, 21.2500°E)
Time: 21:55:10
(UTC+02:00)

ISS - Pass Details

Date: 22 May 2025
Orbit: 415 x 416 km, 51.6° (Epoch: 16 June)

Event Time Altitude Azimuth Distance (km) Brightness Sun altitude
Rises 21:28:25 0° 290° (WNW) 2,362 1.3 -9.4°
Reaches altitude 10° 21:30:32 10° 287° (WNW) 1,496 0.1 -9.6°
Maximum altitude 21:33:51 62° 206° (SSW) 472 -3.6 -10.0°
Enters shadow 21:36:26 15° 127° (SE) 1,201 -2.1 -10.3°
